1503036000.89,28767,20.25,74674.3,15.23,-20.83,-21.13,0,*4C
1503036002.15,28768,20.25,74672.0,15.21,-21.27,-21.73,0,*48
1503036003.4,28769,20.25,74672.5,15.17,-21.33,-21.77,0,*4D
1503036004.69,28770,20.25,74668.3,15.15,-22.77,-23.03,0,*45
1503036005.94,28771,20.31,74674.3,15.13,-21.87,-22.21,0,*4F
1503036007.17,28772,20.25,74670.8,15.13,-21.67,-22.11,0,*41
1503036008.42,28773,20.25,74670.8,15.11,-21.39,-21.83,0,*41
1503036009.67,28774,20.31,74672.3,15.09,-21.87,-22.21,0,*41
1503036010.9,28775,20.25,74672.3,15.09,-22.21,-22.67,0,*4D
1503036012.15,28776,20.31,74672.3,15.07,-20.69,-21.03,0,*4F
1503036013.4,28777,20.25,74670.0,15.07,-20.69,-21.03,0,*4E
1503036014.61,28778,20.25,74668.0,15.05,-20.73,-21.17,0,*4D
1503036015.87,28779,20.25,74668.8,15.07,-20.53,-20.89,0,*4A
1503036017.1,28780,20.25,74672.3,15.05,-20.93,-21.33,0,*42
1503036018.33,28781,20.25,74670.8,15.05,-20.93,-21.23,0,*42
1503036019.55,28782,20.25,74670.0,15.05,-20.43,-20.73,0,*48
1503036020.77,28783,20.25,74670.8,15.07,-20.25,-20.69,0,*40
1503036021.97,28784,20.25,74668.5,15.05,-21.39,-21.73,0,*43
1503036023.25,28785,20.25,74668.8,15.03,-21.33,-21.57,0,*48
1503036024.51,28786,20.31,74674.0,15.03,-21.67,-22.03,0,*48
1503036025.74,28787,20.25,74670.0,15.03,-20.09,-20.29,0,*4A
1503036026.98,28788,20.25,74672.0,15.03,-20.59,-21.09,0,*43
1503036028.24,28789,20.25,74670.3,15.01,-21.87,-22.31,0,*4A
1503036029.47,28790,20.25,74670.0,15.01,-21.77,-22.31,0,*4D
1503036030.73,28791,20.31,74674.5,14.95,-22.87,-23.23,0,*4E
1503036031.99,28792,20.25,74668.0,14.95,-22.21,-22.57,0,*43
1503036033.25,28793,20.25,74674.0,14.93,-21.67,-22.17,0,*41
1503036034.46,28794,20.25,74670.0,14.93,-20.39,-20.73,0,*4C
1503036035.68,28795,20.25,74672.5,14.93,-19.81,-19.95,0,*46
1503036036.91,28796,20.25,74674.8,14.93,-19.95,-20.15,0,*42
1503036038.13,28797,20.25,74674.0,14.93,-18.89,-19.07,0,*46
1503036039.38,28798,20.25,74674.3,14.99,-18.79,-18.93,0,*40
1503036040.61,28799,20.25,74672.8,15.01,-18.17,-18.35,0,*45
1503036041.84,28800,20.25,74674.8,15.03,-18.73,-19.03,0,*4E
1503036043.04,28801,20.25,74672.3,15.01,-18.69,-18.83,0,*4F
1503036044.28,28802,20.25,74676.0,15.03,-18.25,-18.49,0,*40
1503036045.47,28803,20.25,74672.5,15.05,-18.65,-19.03,0,*4C
1503036046.7,28804,20.25,74676.3,15.05,-19.95,-20.15,0,*48
1503036047.94,28805,20.31,74678.8,15.05,-19.37,-19.65,0,*4C
1503036049.2,28806,20.25,74676.5,15.07,-19.27,-19.37,0,*4B
1503036050.4,28807,20.25,74672.5,15.09,-18.65,-18.83,0,*4D
1503036051.66,28808,20.25,74670.3,15.09,-19.27,-19.41,0,*4A
1503036052.89,28809,20.25,74672.0,15.09,-18.93,-19.13,0,*42
1503036054.12,28810,20.25,74674.3,15.09,-18.99,-19.27,0,*47
1503036055.38,28811,20.25,74674.0,15.11,-19.23,-19.51,0,*4E
1503036056.61,28812,20.25,74676.5,15.13,-20.15,-20.59,0,*42
1503036057.83,28813,20.25,74678.3,15.11,-21.09,-21.43,0,*47
1503036059.07,28814,20.25,74676.5,15.09,-21.27,-21.57,0,*40
1503036060.33,28815,20.25,74678.8,15.07,-20.19,-20.43,0,*47
1503036061.57,28816,20.25,74678.0,15.09,-19.27,-19.47,0,*43
1503036062.76,28817,20.25,74678.3,15.09,-18.83,-19.07,0,*49
1503036063.98,28818,20.25,74678.5,15.09,-18.65,-18.93,0,*42
1503036065.19,28819,20.25,74674.0,15.09,-18.49,-18.65,0,*44
1503036066.44,28820,20.25,74678.0,15.11,-18.65,-18.93,0,*40
1503036067.67,28821,20.25,74674.0,15.11,-18.45,-18.65,0,*4A
1503036068.93,28822,20.25,74676.0,15.15,-19.37,-19.65,0,*48
1503036070.17,28823,20.25,74676.8,15.15,-19.81,-20.09,0,*44
1503036071.41,28824,20.25,74676.8,15.13,-19.37,-19.57,0,*49
1503036072.64,28825,20.25,74674.3,15.15,-18.83,-19.13,0,*40
1503036073.9,28826,20.25,74676.8,15.15,-19.17,-19.31,0,*4F
1503036075.15,28827,20.25,74678.0,15.17,-20.15,-20.43,0,*4B
1503036076.41,28828,20.25,74678.5,15.13,-19.65,-19.85,0,*4D
1503036077.66,28829,20.25,74676.8,15.15,-19.65,-19.91,0,*4F
1503036078.89,28830,20.25,74678.8,15.15,-18.69,-18.99,0,*43
1503036080.17,28831,20.25,74678.8,15.15,-19.31,-19.65,0,*4C
1503036081.42,28832,20.25,74678.8,15.17,-18.55,-19.03,0,*4E
1503036082.65,28833,20.25,74678.0,15.15,-19.51,-19.91,0,*43
1503036083.88,28834,20.25,74676.3,15.15,-19.17,-19.37,0,*4A
1503036085.13,28835,20.25,74678.0,15.15,-18.55,-18.83,0,*42
1503036086.38,28836,20.25,74676.5,15.17,-19.03,-19.31,0,*49
1503036087.61,28837,20.25,74676.5,15.17,-18.69,-18.99,0,*46
1503036088.87,28838,20.25,74678.3,15.21,-19.03,-19.27,0,*45
1503036090.13,28839,20.25,74676.0,15.23,-19.57,-19.85,0,*4F
1503036091.38,28840,20.25,74680.0,15.21,-20.79,-21.09,0,*4A
1503036092.64,28841,20.25,74672.8,15.21,-20.99,-21.47,0,*4F
1503036093.94,28842,20.25,74678.0,15.21,-19.27,-19.57,0,*49
1503036095.17,28843,20.25,74674.5,15.21,-20.25,-20.69,0,*47
1503036096.39,28844,20.25,74672.3,15.17,-20.69,-21.13,0,*41
1503036097.63,28845,20.25,74678.0,15.17,-19.95,-20.05,0,*4F
1503036098.88,28846,20.25,74674.5,15.15,-20.69,-21.03,0,*40
1503036100.12,28847,20.25,74678.0,15.15,-20.39,-20.89,0,*47
1503036101.35,28848,20.25,74674.5,15.15,-21.13,-21.39,0,*4B
1503036102.63,28849,20.25,74678.8,15.15,-20.15,-20.53,0,*40
1503036103.85,28850,20.25,74676.5,15.13,-20.99,-21.39,0,*47
1503036105.09,28851,20.25,74674.5,15.13,-20.49,-20.89,0,*41
1503036106.31,28852,20.25,74672.5,15.09,-20.43,-20.89,0,*43
1503036107.56,28853,20.25,74676.3,15.11,-20.49,-20.93,0,*4A
1503036108.79,28854,20.25,74672.8,15.11,-20.59,-21.09,0,*4E
1503036109.99,28855,20.25,74678.8,15.09,-21.73,-22.07,0,*42
1503036111.23,28856,20.25,74680.0,15.09,-20.93,-21.23,0,*4B
1503036112.46,28857,20.25,74676.5,15.09,-20.93,-21.23,0,*4A
1503036113.71,28858,20.25,74678.5,15.07,-21.27,-21.63,0,*41
1503036114.98,28859,20.25,74676.3,15.05,-21.53,-21.87,0,*4B
1503036116.23,28860,20.25,74680.3,15.07,-21.17,-21.67,0,*4D
1503036117.46,28861,20.25,74676.0,15.05,-21.43,-21.97,0,*40
1503036118.73,28862,20.25,74678.3,15.03,-20.89,-21.23,0,*4D
1503036119.98,28863,20.25,74678.0,15.01,-20.79,-21.27,0,*45
1503036121.24,28864,20.25,74676.5,15.03,-21.17,-21.53,0,*4A
1503036122.5,28865,20.25,74678.0,15.01,-20.79,-20.99,0,*47
1503036123.72,28866,20.25,74678.5,15.01,-21.23,-21.73,0,*4F
1503036124.95,28867,20.25,74676.5,15.01,-21.27,-21.73,0,*4A
1503036126.18,28868,20.25,74678.0,15.01,-20.63,-20.99,0,*41
1503036127.44,28869,20.25,74676.5,14.95,-21.33,-21.77,0,*49
1503036128.69,28870,20.25,74678.0,14.99,-21.57,-22.07,0,*4B
1503036129.91,28871,20.25,74678.0,14.99,-20.29,-20.69,0,*48
1503036131.14,28872,20.25,74678.3,14.95,-21.17,-21.63,0,*40
1503036132.39,28873,20.25,74676.8,14.99,-21.13,-21.57,0,*4E
1503036133.65,28874,20.25,74672.8,14.95,-21.47,-21.83,0,*4D
1503036134.85,28875,20.25,74678.5,14.93,-21.39,-21.73,0,*4C
1503036136.05,28876,20.25,74674.5,14.93,-21.73,-22.27,0,*43
1503036137.31,28877,20.25,74678.3,14.91,-22.47,-22.83,0,*4A
1503036138.57,28878,20.25,74672.8,14.87,-21.97,-22.53,0,*41
1503036139.85,28879,20.25,74676.3,14.87,-22.73,-23.23,0,*4F
1503036141.08,28880,20.25,74678.3,14.87,-22.07,-22.57,0,*48
1503036142.31,28881,20.25,74678.3,14.87,-21.17,-21.47,0,*49
1503036143.54,28882,20.25,74672.0,14.89,-20.29,-20.49,0,*47
1503036144.82,28883,20.25,74674.8,14.87,-20.49,-20.99,0,*43
1503036146.02,28884,20.25,74676.8,14.85,-19.47,-19.71,0,*4E
1503036147.25,28885,20.25,74678.0,14.89,-18.99,-19.27,0,*42
1503036148.51,28886,20.25,74676.3,14.87,-19.75,-20.19,0,*4B
1503036149.74,28887,20.25,74676.8,14.89,-19.91,-20.35,0,*40
1503036150.96,28888,20.25,74674.8,14.89,-20.35,-20.69,0,*42
1503036152.19,28889,20.25,74678.0,14.87,-20.69,-21.13,0,*48
1503036153.43,28890,20.25,74674.0,14.89,-20.53,-20.93,0,*4E
1503036154.68,28891,20.25,74676.3,14.87,-20.73,-21.27,0,*4D
1503036155.91,28892,20.25,74678.5,14.87,-21.43,-21.93,0,*43
1503036157.17,28893,20.25,74676.3,14.87,-21.43,-21.83,0,*43
1503036158.38,28894,20.25,74674.0,14.89,-19.71,-19.99,0,*40
1503036159.61,28895,20.25,74678.0,14.87,-19.47,-19.75,0,*48
1503036160.88,28896,20.25,74676.5,14.89,-19.27,-19.61,0,*46
1503036162.11,28897,20.25,74676.5,14.91,-20.25,-20.73,0,*4F
1503036163.34,28898,20.25,74680.8,14.89,-20.43,-20.83,0,*46
1503036164.58,28899,20.25,74678.8,14.89,-20.69,-21.23,0,*44
1503036165.83,28900,20.25,74674.3,14.87,-20.99,-21.43,0,*42
1503036167.06,28901,20.25,74676.5,14.89,-21.13,-21.57,0,*4B
1503036168.32,28902,20.25,74674.3,14.87,-21.27,-21.77,0,*43
1503036169.55,28903,20.25,74678.8,14.87,-21.47,-21.93,0,*4E
1503036170.79,28904,20.25,74676.5,14.83,-20.43,-20.89,0,*42
1503036172.02,28905,20.25,74676.5,14.85,-19.85,-20.29,0,*4F
1503036173.27,28906,20.25,74676.5,14.85,-19.65,-19.85,0,*4E
1503036174.5,28907,20.25,74678.3,14.87,-18.73,-19.13,0,*44
1503036175.77,28908,20.25,74676.0,14.87,-19.13,-19.41,0,*4B
1503036177.0,28909,20.25,74678.3,14.89,-19.57,-19.75,0,*43
1503036178.21,28910,20.25,74678.0,14.89,-19.37,-19.71,0,*49
1503036179.47,28911,20.25,74678.0,14.91,-19.85,-20.25,0,*43
1503036180.72,28912,20.25,74676.5,14.91,-21.17,-21.57,0,*44
1503036181.95,28913,20.25,74678.8,14.91,-20.63,-21.17,0,*43
1503036183.21,28914,20.25,74676.0,14.87,-21.03,-21.43,0,*45
1503036184.47,28915,20.25,74678.0,14.87,-20.09,-20.49,0,*44
1503036185.72,28916,20.25,74678.8,14.87,-20.39,-20.83,0,*42
1503036186.96,28917,20.25,74676.5,14.87,-20.25,-20.59,0,*49
1503036188.22,28918,20.25,74676.0,14.89,-20.49,-20.83,0,*45
1503036189.48,28919,20.25,74676.8,14.87,-20.39,-20.83,0,*4D
1503036190.73,28920,20.25,74672.0,14.87,-20.89,-21.33,0,*46
1503036191.99,28921,20.25,74678.8,14.87,-20.69,-21.27,0,*4C
1503036193.2,28922,20.25,74678.3,14.85,-20.93,-21.47,0,*4E
1503036194.45,28923,20.25,74676.0,14.87,-21.13,-21.57,0,*45
1503036195.73,28924,20.25,74676.3,14.83,-21.83,-22.31,0,*4C
1503036196.99,28925,20.25,74678.3,14.85,-20.79,-21.23,0,*4F
1503036198.18,28926,20.25,74678.0,14.85,-21.09,-21.63,0,*4E
1503036199.44,28927,20.25,74678.5,14.83,-21.23,-21.63,0,*41
1503036200.64,28928,20.25,74678.0,14.81,-20.63,-21.09,0,*45
1503036201.84,28929,20.25,74676.5,14.81,-20.93,-21.39,0,*48
1503036203.07,28930,20.25,74676.5,14.83,-20.89,-21.39,0,*49
1503036204.27,28931,20.25,74672.8,14.81,-21.39,-21.73,0,*4E
1503036205.5,28932,20.25,74676.5,14.81,-20.59,-20.99,0,*4F
1503036206.73,28933,20.25,74674.3,14.83,-20.29,-20.59,0,*47
1503036207.93,28934,20.25,74678.5,14.81,-20.63,-21.09,0,*48
1503036209.13,28935,20.25,74676.0,14.81,-19.91,-20.29,0,*4D
1503036210.36,28936,20.25,74676.0,14.81,-20.19,-20.59,0,*43
1503036211.57,28937,20.25,74676.3,14.81,-20.63,-20.93,0,*49
1503036212.78,28938,20.25,74678.0,14.81,-19.99,-20.43,0,*44
1503036213.99,28939,20.25,74676.5,14.81,-19.51,-19.75,0,*4E
1503036215.22,28940,20.25,74676.5,14.81,-19.07,-19.27,0,*44
1503036216.47,28941,20.25,74678.3,14.83,-19.47,-19.81,0,*4F
1503036217.75,28942,20.25,74678.8,14.83,-19.65,-19.81,0,*4C
1503036219.03,28943,20.25,74674.5,14.87,-18.89,-19.27,0,*46
1503036220.29,28944,20.25,74676.5,14.87,-19.61,-19.95,0,*4F
1503036221.5,28945,20.25,74678.5,14.85,-20.09,-20.39,0,*44
1503036222.73,28946,20.25,74672.5,14.85,-19.17,-19.61,0,*45
1503036223.96,28947,20.25,74676.5,14.87,-19.03,-19.47,0,*47
1503036225.22,28948,20.25,74678.8,14.87,-19.47,-19.81,0,*42
1503036226.5,28949,20.25,74672.0,14.87,-19.57,-19.81,0,*42
1503036227.71,28950,20.25,74676.8,14.89,-18.83,-19.13,0,*47
1503036228.98,28951,20.25,74680.0,14.87,-19.17,-19.61,0,*41
1503036230.2,28952,20.25,74676.8,14.87,-19.03,-19.47,0,*43
1503036231.44,28953,20.25,74678.0,14.89,-19.13,-19.41,0,*4B
1503036232.73,28954,20.25,74676.8,14.91,-18.01,-18.31,0,*41
1503036233.96,28955,20.25,74676.8,14.93,-17.59,-17.83,0,*46
1503036235.19,28956,20.25,74672.8,14.95,-18.11,-18.41,0,*41
1503036236.45,28957,20.25,74680.5,14.95,-18.99,-19.41,0,*41
1503036237.68,28958,20.25,74678.3,14.99,-18.45,-18.65,0,*44
1503036238.95,28959,20.25,74676.0,14.99,-17.63,-17.93,0,*48
1503036240.2,28960,20.25,74674.0,14.99,-17.63,-17.87,0,*47
1503036241.46,28961,20.25,74676.8,15.03,-17.45,-17.69,0,*40
1503036242.72,28962,20.25,74678.0,15.03,-17.83,-18.01,0,*48
1503036243.98,28963,20.25,74676.3,15.07,-17.79,-18.11,0,*49
1503036245.2,28964,20.25,74676.3,15.07,-18.11,-18.45,0,*4E
1503036246.45,28965,20.25,74676.8,15.07,-18.59,-18.99,0,*42
1503036247.7,28966,20.25,74676.0,15.07,-18.59,-19.03,0,*43
1503036248.94,28967,20.25,74678.3,15.09,-19.85,-20.15,0,*41
1503036250.17,28968,20.25,74678.8,15.09,-19.61,-19.99,0,*4A
1503036251.37,28969,20.25,74678.5,15.05,-20.09,-20.29,0,*42
1503036252.63,28970,20.25,74678.0,15.07,-19.65,-20.09,0,*4A
1503036253.86,28971,20.25,74678.5,15.07,-20.09,-20.43,0,*45
1503036255.13,28972,20.25,74678.8,15.07,-20.19,-20.53,0,*46
1503036256.34,28973,20.25,74676.8,15.05,-19.99,-20.29,0,*4A
1503036257.57,28974,20.25,74678.5,15.05,-20.09,-20.49,0,*48
1503036258.77,28975,20.25,74676.8,15.05,-20.09,-20.29,0,*4F
1503036260.0,28976,20.25,74672.3,15.05,-19.99,-20.35,0,*42
1503036261.28,28977,20.25,74676.0,15.03,-20.15,-20.35,0,*4B
1503036262.51,28978,20.25,74676.8,15.05,-19.95,-20.15,0,*42
1503036263.72,28979,20.25,74678.5,15.05,-19.95,-20.29,0,*4C
1503036264.96,28980,20.25,74676.8,15.03,-20.25,-20.59,0,*4A
1503036266.18,28981,20.25,74678.5,15.01,-20.39,-20.79,0,*46
1503036267.42,28982,20.25,74680.0,15.03,-20.25,-20.59,0,*48
1503036268.68,28983,20.25,74682.0,15.03,-18.65,-18.89,0,*40
1503036269.92,28984,20.25,74672.0,15.03,-19.17,-19.37,0,*47
1503036271.18,28985,20.25,74676.5,15.03,-18.65,-18.93,0,*4D
1503036272.4,28986,20.25,74678.8,15.05,-18.73,-18.93,0,*4F
1503036273.66,28987,20.25,74678.5,15.07,-17.97,-18.21,0,*40
1503036274.89,28988,20.25,74676.5,15.07,-17.83,-18.07,0,*4E
1503036276.1,28989,20.25,74678.5,15.09,-19.13,-19.47,0,*43
1503036277.31,28990,20.25,74678.3,15.09,-18.83,-19.13,0,*42
1503036278.53,28991,20.25,74680.3,15.11,-18.17,-18.45,0,*45
1503036279.78,28992,20.25,74678.3,15.11,-19.03,-19.23,0,*43
1503036281.03,28993,20.25,74674.5,15.11,-18.89,-19.17,0,*46
1503036282.29,28994,20.25,74678.5,15.11,-19.57,-19.95,0,*49
1503036283.55,28995,20.25,74678.3,15.11,-20.19,-20.59,0,*42
1503036284.8,28996,20.25,74676.5,15.11,-19.81,-20.09,0,*4F
1503036286.05,28997,20.25,74680.0,15.11,-19.65,-19.95,0,*4B
1503036287.29,28998,20.25,74678.8,15.11,-19.71,-19.99,0,*4D
1503036288.52,28999,20.25,74678.5,15.09,-19.65,-19.99,0,*40
1503036289.72,29000,20.25,74676.8,15.09,-19.71,-20.05,0,*42
1503036290.97,29001,20.25,74680.0,15.11,-19.95,-20.15,0,*41
1503036292.18,29002,20.25,74678.3,15.09,-19.99,-20.25,0,*44
1503036293.41,29003,20.25,74676.0,15.09,-20.05,-20.49,0,*40
1503036294.63,29004,20.25,74678.5,15.09,-19.75,-20.15,0,*43
1503036295.85,29005,20.25,74676.0,15.11,-20.29,-20.63,0,*49
1503036297.08,29006,20.25,74678.3,15.09,-20.69,-20.99,0,*42
1503036298.31,29007,20.25,74672.8,15.09,-20.79,-21.13,0,*41
1503036299.51,29008,20.25,74676.8,15.09,-20.25,-20.63,0,*41
1503036300.73,29009,20.25,74674.3,15.09,-19.99,-20.15,0,*4C
1503036302.01,29010,20.25,74672.8,15.11,-19.65,-19.85,0,*4D
1503036303.21,29011,20.25,74676.0,15.09,-20.05,-20.25,0,*49
1503036304.44,29012,20.25,74676.8,15.09,-20.79,-21.13,0,*45
1503036305.64,29013,20.25,74672.3,15.05,-21.09,-21.39,0,*46
1503036306.87,29014,20.25,74676.3,15.05,-21.39,-21.67,0,*49
1503036308.07,29015,20.25,74678.5,15.05,-20.93,-21.17,0,*4E
1503036309.28,29016,20.25,74676.8,15.01,-20.93,-21.39,0,*45
1503036310.48,29017,20.25,74676.5,15.01,-20.73,-21.17,0,*46
1503036311.74,29018,20.25,74676.5,15.03,-20.79,-21.09,0,*4E
1503036312.97,29019,20.25,74674.8,15.01,-20.79,-21.17,0,*42
1503036314.17,29020,20.25,74672.0,15.01,-21.13,-21.43,0,*44
1503036315.42,29021,20.25,74672.5,14.99,-20.35,-20.63,0,*43
1503036316.68,29022,20.25,74674.5,14.99,-20.63,-20.99,0,*46
1503036317.93,29023,20.25,74672.3,14.99,-20.99,-21.43,0,*44
1503036319.18,29024,20.25,74674.8,14.99,-21.23,-21.47,0,*47
1503036320.44,29025,20.25,74674.0,14.95,-21.03,-21.43,0,*4C
1503036321.64,29026,20.25,74674.3,14.93,-21.09,-21.47,0,*47
1503036322.89,29027,20.25,74670.0,14.93,-21.33,-21.57,0,*4E
1503036324.14,29028,20.25,74672.5,14.93,-21.33,-21.57,0,*41
1503036325.35,29029,20.25,74674.0,14.93,-20.59,-20.93,0,*44
1503036326.61,29030,20.25,74676.3,14.91,-21.03,-21.47,0,*48
1503036327.82,29031,20.25,74674.8,14.93,-19.17,-19.37,0,*49
1503036329.1,29032,20.25,74674.3,14.91,-19.57,-19.81,0,*41
1503036330.33,29033,20.25,74674.0,14.91,-20.29,-20.43,0,*47
1503036331.53,29034,20.25,74672.8,14.93,-20.09,-20.39,0,*4D
1503036332.75,29035,20.25,74676.8,14.93,-19.95,-20.25,0,*4E
1503036333.97,29036,20.25,74676.0,14.93,-19.85,-20.09,0,*42
1503036335.2,29037,20.25,74678.5,14.93,-20.79,-21.17,0,*44
1503036336.46,29038,20.25,74676.5,14.93,-18.93,-19.23,0,*48
1503036337.69,29039,20.25,74672.8,14.93,-18.59,-18.73,0,*4B
1503036338.95,29040,20.25,74676.0,14.99,-18.31,-18.49,0,*48
1503036340.2,29041,20.25,74672.8,14.99,-18.17,-18.31,0,*42
1503036341.43,29042,20.25,74676.8,15.01,-18.17,-18.35,0,*45
1503036342.67,29043,20.25,74672.8,15.03,-17.87,-18.11,0,*46
1503036343.91,29044,20.25,74674.5,15.03,-17.87,-17.87,0,*41
1503036345.14,29045,20.25,74674.0,15.03,-18.11,-18.25,0,*47
1503036346.4,29046,20.25,74674.5,15.07,-18.21,-18.35,0,*42
1503036347.62,29047,20.25,74672.8,15.07,-18.07,-18.21,0,*42
1503036348.88,29048,20.25,74676.3,15.11,-18.17,-18.35,0,*4E
1503036350.11,29049,20.25,74674.5,15.09,-18.17,-18.35,0,*46
1503036351.33,29050,20.25,74676.5,15.09,-18.01,-18.21,0,*4C
1503036352.56,29051,20.25,74672.8,15.13,-18.35,-18.45,0,*43
1503036353.79,29052,20.25,74674.8,15.15,-18.99,-19.17,0,*46
1503036355.02,29053,20.25,74676.0,15.13,-18.17,-18.35,0,*46
1503036356.27,29054,20.25,74676.0,15.15,-18.55,-18.69,0,*48
1503036357.49,29055,20.25,74674.8,15.15,-18.25,-18.41,0,*44
1503036358.75,29056,20.25,74674.0,15.17,-17.93,-18.11,0,*42
1503036360.01,29057,20.25,74672.5,15.17,-17.97,-18.11,0,*47
1503036361.25,29058,20.25,74674.3,15.21,-18.41,-18.49,0,*44
1503036362.51,29059,20.25,74672.0,15.21,-17.49,-17.59,0,*4C
1503036363.74,29060,20.25,74676.0,15.23,-17.69,-17.97,0,*44
1503036364.97,29061,20.25,74676.8,15.23,-17.55,-17.69,0,*4B
1503036366.2,29062,20.25,74678.5,15.25,-18.17,-18.45,0,*46
1503036367.48,29063,20.25,74678.5,15.25,-19.23,-19.41,0,*44
1503036368.68,29064,20.25,74678.3,15.27,-18.73,-19.03,0,*43
1503036369.94,29065,20.25,74676.0,15.27,-17.55,-17.93,0,*4E
1503036371.16,29066,20.25,74676.0,15.27,-17.93,-18.17,0,*44
1503036372.37,29067,20.25,74676.3,15.27,-18.25,-18.45,0,*40
1503036373.64,29068,20.25,74676.5,15.29,-18.35,-18.55,0,*41
1503036374.89,29069,20.25,74674.0,15.29,-18.93,-19.07,0,*4A
1503036376.11,29070,20.25,74676.3,15.29,-19.75,-19.95,0,*40
1503036377.34,29071,20.25,74678.5,15.29,-19.75,-20.09,0,*4E
1503036378.57,29072,20.25,74678.0,15.27,-20.09,-20.53,0,*4D
1503036379.78,29073,20.25,74678.0,15.27,-20.09,-20.43,0,*4D
1503036380.99,29074,20.25,74676.8,15.27,-19.91,-20.25,0,*41
1503036382.24,29075,20.25,74676.0,15.25,-19.85,-19.99,0,*4A
1503036383.45,29076,20.25,74676.0,15.23,-19.71,-20.05,0,*4B
1503036384.68,29077,20.25,74672.8,15.23,-22.03,-22.21,0,*43
1503036385.9,29078,20.25,74674.0,15.23,-20.59,-20.89,0,*41
1503036387.15,29079,20.25,74678.5,15.23,-19.85,-19.85,0,*4D
1503036388.38,29080,20.25,74678.0,15.23,-18.65,-18.93,0,*42
1503036389.61,29081,20.25,74674.5,15.23,-18.11,-18.35,0,*4C
1503036390.82,29082,20.25,74676.0,15.23,-17.69,-17.87,0,*49
1503036392.05,29083,20.25,74672.8,15.25,-17.69,-17.87,0,*4E
1503036393.3,29084,20.25,74678.0,15.29,-18.01,-18.21,0,*47
1503036394.55,29085,20.25,74674.3,15.29,-18.93,-19.03,0,*4C
1503036395.78,29086,20.25,74676.3,15.29,-19.17,-19.47,0,*42
1503036397.04,29087,20.25,74676.3,15.33,-19.65,-20.09,0,*4D
1503036398.27,29088,20.25,74676.0,15.29,-19.91,-20.09,0,*42
1503036399.51,29089,20.25,74680.0,15.29,-19.81,-19.91,0,*49
1503036400.71,29090,20.25,74674.5,15.27,-20.09,-20.43,0,*40
1503036401.91,29091,20.25,74674.5,15.27,-20.29,-20.69,0,*4B
1503036403.12,29092,20.25,74678.3,15.27,-20.25,-20.59,0,*47
1503036404.33,29093,20.25,74676.0,15.27,-20.09,-20.43,0,*43
1503036405.56,29094,20.25,74676.5,15.23,-20.35,-20.63,0,*4D
1503036406.79,29095,20.25,74676.8,15.23,-19.85,-20.05,0,*4D
1503036408.04,29096,20.25,74674.0,15.25,-20.05,-20.49,0,*42
1503036409.29,29097,20.25,74672.8,15.25,-19.03,-19.23,0,*49
1503036410.51,29098,20.25,74672.8,15.25,-18.79,-19.03,0,*48
1503036411.74,29099,20.25,74674.0,15.23,-18.49,-18.59,0,*42
1503036412.93,29100,20.25,74674.5,15.27,-18.11,-18.25,0,*41
1503036414.16,29101,20.25,74676.3,15.27,-18.41,-18.55,0,*42
1503036415.39,29102,20.25,74674.5,15.27,-17.83,-17.93,0,*45
1503036416.66,29103,20.19,74674.3,15.29,-17.63,-17.79,0,*40
1503036417.91,29104,20.25,74672.8,15.29,-17.21,-17.31,0,*4D
1503036419.14,29105,20.19,74672.8,15.31,-17.17,-17.31,0,*40
1503036420.42,29106,20.19,74674.0,15.33,-17.03,-17.17,0,*40
1503036421.67,29107,20.19,74674.5,15.33,-17.45,-17.69,0,*4A
1503036422.92,29108,20.25,74674.5,15.37,-17.25,-17.49,0,*45
1503036424.15,29109,20.25,74676.5,15.37,-17.69,-17.83,0,*4A
1503036425.4,29110,20.25,74672.8,15.37,-17.49,-17.63,0,*4E
1503036426.63,29111,20.19,74674.5,15.39,-17.59,-17.73,0,*41
1503036427.83,29112,20.25,74674.8,15.43,-17.87,-18.07,0,*40
1503036429.04,29113,20.19,74672.0,15.43,-17.73,-17.87,0,*4D
1503036430.24,29114,20.19,74674.3,15.43,-17.69,-17.83,0,*45
1503036431.46,29115,20.25,74676.3,15.47,-18.45,-18.59,0,*49
1503036432.69,29116,20.25,74676.3,15.45,-17.87,-18.11,0,*45
1503036433.97,29117,20.25,74676.3,15.45,-17.79,-17.97,0,*44
1503036435.2,29118,20.19,74674.8,15.47,-17.83,-17.97,0,*4C
1503036436.43,29119,20.25,74674.8,15.47,-17.87,-18.01,0,*49
1503036437.63,29120,20.25,74676.5,15.49,-18.07,-18.25,0,*4C
1503036438.85,29121,20.25,74676.0,15.51,-18.11,-18.25,0,*43
1503036440.08,29122,20.19,74674.3,15.49,-18.41,-18.55,0,*4B
1503036441.31,29123,20.25,74678.0,15.51,-18.21,-18.49,0,*48
1503036442.53,29124,20.25,74676.0,15.51,-18.25,-18.49,0,*4B
1503036443.79,29125,20.25,74674.8,15.51,-18.35,-18.41,0,*43
1503036445.01,29126,20.19,74672.3,15.51,-18.11,-18.25,0,*44
1503036446.26,29127,20.25,74676.3,15.51,-19.03,-19.27,0,*44
1503036447.49,29128,20.25,74678.0,15.51,-18.99,-19.17,0,*4A
1503036448.72,29129,20.19,74672.3,15.49,-18.11,-18.35,0,*43
1503036449.95,29130,20.25,74672.5,15.53,-17.87,-17.93,0,*43
1503036451.15,29131,20.25,74676.3,15.57,-18.25,-18.41,0,*41
1503036452.41,29132,20.25,74676.3,15.55,-18.17,-18.31,0,*46
1503036453.6,29133,20.25,74676.5,15.53,-18.65,-18.79,0,*48
1503036454.84,29134,20.19,74672.3,15.57,-19.31,-19.51,0,*40
1503036456.06,29135,20.25,74678.3,15.55,-18.65,-18.79,0,*48
1503036457.29,29136,20.25,74676.0,15.57,-18.79,-18.89,0,*4B
1503036458.53,29137,20.25,74674.5,15.55,-19.17,-19.37,0,*45
1503036459.78,29138,20.25,74676.3,15.55,-18.93,-19.03,0,*40
1503036461.01,29139,20.19,74674.5,15.53,-18.17,-18.35,0,*4F
1503036462.24,29140,20.25,74674.0,15.55,-17.69,-17.83,0,*43
1503036463.49,29141,20.25,74674.3,15.55,-17.83,-18.01,0,*43
1503036464.73,29142,20.25,74674.5,15.57,-17.87,-17.97,0,*46
1503036465.98,29143,20.25,74674.0,15.59,-18.55,-18.69,0,*47
1503036467.2,29144,20.25,74676.8,15.61,-17.73,-17.79,0,*4E
1503036468.46,29145,20.25,74672.3,15.59,-17.69,-17.79,0,*4F
1503036469.66,29146,20.25,74674.3,15.61,-18.49,-18.69,0,*44
1503036470.87,29147,20.25,74672.0,15.61,-18.55,-18.79,0,*49
1503036472.09,29148,20.25,74674.3,15.61,-17.93,-18.17,0,*4B
1503036473.34,29149,20.25,74674.3,15.61,-17.79,-17.93,0,*4D
1503036474.58,29150,20.19,74670.8,15.63,-17.63,-17.73,0,*42
1503036475.84,29151,20.25,74674.3,15.63,-17.63,-17.87,0,*48
1503036477.06,29152,20.19,74674.0,15.69,-17.63,-17.83,0,*45
1503036478.34,29153,20.25,74672.0,15.67,-17.55,-17.59,0,*48
1503036479.57,29154,20.25,74674.5,15.69,-17.79,-17.83,0,*48
1503036480.76,29155,20.25,74672.3,15.69,-17.69,-17.73,0,*47
1503036482.02,29156,20.19,74670.8,15.71,-17.93,-18.07,0,*44
1503036483.24,29157,20.19,74668.3,15.69,-17.69,-17.79,0,*4F
1503036484.51,29158,20.19,74670.8,15.71,-17.63,-17.79,0,*43
1503036485.78,29159,20.19,74674.5,15.71,-17.79,-17.93,0,*4D
1503036486.98,29160,20.19,74672.3,15.73,-17.73,-17.87,0,*4A
1503036488.2,29161,20.25,74674.0,15.73,-17.45,-17.49,0,*4C
1503036489.43,29162,20.19,74670.5,15.73,-18.07,-18.31,0,*46
1503036490.68,29163,20.19,74672.5,15.73,-18.35,-18.55,0,*44
1503036491.88,29164,20.19,74672.8,15.73,-18.65,-18.83,0,*4D
1503036493.1,29165,20.19,74674.3,15.73,-18.41,-18.55,0,*41
1503036494.32,29166,20.19,74670.5,15.73,-18.31,-18.41,0,*40